Regional Weather Roundup
Issued by NWS

Home | Current Version | Previous Version | Graphics & Text | Print | Product List | Glossary On
Versions: 1 2 3 4 5 6 7 8 9 10 11 12 13 14 15 16 17 18 19 20 21 22 23 24 25 26 27 28 29 30 31
000
ASUS45 KGTF 181910
RWRMT
MONTANA HOURLY WEATHER ROUNDUP
NATIONAL WEATHER SERVICE GREAT FALLS MT
100 PM MDT SAT APR 18 2015

NOTE: "FAIR" INDICATES FEW OR NO CLOUDS BELOW 12000 FEET WITH NO
SIGNIFICANT WEATHER AND/OR OBSTRUCTIONS TO VISIBILITY.

MTZ001>007-043-182000-
WEST OF THE DIVIDE

CITY           SKY/WX    TMP DP  RH WIND       PRES   REMARKS
KALISPELL      CLEAR     59  28  30 NE17G26   30.19F
MISSOULA       SUNNY     62  30  29 N12G21    30.16F
BUTTE          PTSUNNY   55  23  28 NW12G24   30.13F
DEER LODGE       N/A     50  32  50 NE20G26   30.19R
EUREKA           N/A     57  23  26 N7        30.21F
HAMILTON         N/A     61  25  25 NE1       30.14F
LIBBY            N/A     61  19  20 NE5       30.19F
$$

MTZ008-052>055-182000-
SOUTHWEST MONTANA

CITY           SKY/WX    TMP DP  RH WIND       PRES   REMARKS
BOZEMAN        PTSUNNY   55  33  43 NW12G18   30.10F HAZE
DILLON         SUNNY     58  20  22 NW12G17   30.10F
$$

MTZ009-010-012-014-046-048-049-054-182000-
EAST SLOPES AND CENTRAL MONTANA

CITY           SKY/WX    TMP DP  RH WIND       PRES   REMARKS
CUT BANK       CLOUDY    41  29  62 NW18      30.29F
GREAT FALLS    LGT RAIN  36  34  92 N10       30.29F WCI  28
MALMSTROM AFB  LGT RAIN  37  36  93 NW10G17   30.30R WCI  30
HELENA         CLOUDY    43  29  57 N14       30.27R
$$

MTZ011-013-016-021-045-047-050-051-182000-
NORTH CENTRAL MONTANA

CITY           SKY/WX    TMP DP  RH WIND       PRES   REMARKS
HAVRE          CLOUDY    49  30  48 N13G18    30.22F
LEWISTOWN      CLOUDY    40  31  70 NW21G35   30.20R
FORT BENTON      N/A     43  36  75 NW6       30.29F
$$

MTZ017>020-022>042-056>058-061-062-182000-
EASTERN PLAINS

CITY           SKY/WX    TMP DP  RH WIND       PRES   REMARKS
BAKER          CLOUDY    63  41  44 W6        29.93F
BILLINGS       PTSUNNY   60  32  34 NE22G33   30.02S
GLASGOW        MOSUNNY   58  29  33 N28G38    30.03S
JORDAN           N/A     57  37  47 N25G35    30.04R
LIVINGSTON     PTSUNNY   58  30  34 N14       30.08R
MILES CITY     SUNNY     68  34  28 NW23G31   29.92F
SIDNEY         PTSUNNY   64  37  36 NW20G32   29.88F
WOLF POINT     CLOUDY    59  38  45 N24G32    29.98R
BIG TIMBER       N/A     54  36  50 N20G25    30.08R
FORSYTH          N/A     63  36  36 NW20G29   29.98R
PLENTYWOOD       N/A     54  37  54 N29G36    29.93S
POPLAR           N/A     57  37  47 N24G36    29.96R
$$

REGIONAL REPORTS...DAKOTAS

CITY           SKY/WX    TMP DP  RH WIND       PRES   REMARKS
WILLISTON      MOSUNNY   72  38  29 SW14      29.86F
MINOT          SUNNY     72  21  14 S17G23    29.89F
DICKINSON      MOSUNNY   68  35  29 W10       29.90F
BEACH          MOCLDY    66  34  30 W9        29.92F
CROSBY         FAIR      63  36  36 NW29G37   29.91R
WATFORD CITY   FAIR      70  32  24 SW8G20    29.86F
BISMARCK       CLOUDY    61  31  32 CALM      29.96F
GRAND FORKS    PTSUNNY   65  24  21 SE6       29.98F
FARGO          PTSUNNY   69  28  21 SE9       29.97F
BUFFALO SD       N/A     60  38  43 S10       29.88F
RAPID CITY     CLOUDY    47  43  86 N13       29.94F
$$

REGIONAL REPORTS...WYOMING/IDAHO/WASHINGTON

CITY           SKY/WX    TMP DP  RH WIND       PRES   REMARKS
GILLETTE       CLOUDY    56  40  55 N8        29.94F
SHERIDAN       MOSUNNY   62  34  35 NW26      29.96F
BUFFALO WY     MOSUNNY   62  29  28 N29G39    29.96F
CODY           SUNNY     59  30  33 N20G25    30.02F
YELLOWSTONE LA   N/A     48  19  31 N10G18    30.12F
IDAHO FALLS    SUNNY     64  27  24 VRB5      30.04F
SALMON         SUNNY     63  23  22 SW5       30.11F
BOISE          MOSUNNY   68  34  28 NW21G28   30.10F
SPOKANE        MOSUNNY   62  21  20 N10       30.24F
$$

REGIONAL REPORTS...ALBERTA

CITY           SKY/WX    TMP DP  RH WIND       PRES   REMARKS
EDMONTON       MOSUNNY   52  19  28 N28G37    30.20S
CALGARY        MOSUNNY   48  18  29 NW17      30.27F
LETHBRIDGE     PTSUNNY   46  30  53 NW18G25   30.29F
MEDICINE HAT   PTSUNNY   54  25  32 NW22G30   30.20F
$$

REGIONAL REPORTS...SASKATCHEWAN

CITY           SKY/WX    TMP DP  RH WIND       PRES   REMARKS
SWIFT CURRENT  MOSUNNY   48  27  43 NW25G35   30.06F
REGINA         PTSUNNY   57  32  38 NW26G33   29.97R
SASKATOON      PTSUNNY   48  32  53 NW22G31   30.00S
$$



USA.gov is the U.S. government's official web portal to all federal, state and local government web resources and services.